Location: Tamazert
(32.6352°N, 5.2072°W)
Time: 05:53:36
(UTC+00:00)

Vanguard 2 - Pass Details

Date: 10 October 2022
Orbit: 553 x 2933 km, 32.9° (Epoch: 26 November)

Event Time Altitude Azimuth Distance (km) Brightness Sun altitude
Rises 08:29:33 0° 196° (SSW) 3,032 10.7 25.0°
Reaches altitude 10° 08:32:32 10° 172° (S) 2,360 10.6 25.5°
Maximum altitude 08:35:51 16° 135° (SE) 2,269 11.7 26.1°
Drops below altitude 10° 08:40:01 10° 100° (E) 3,106 12.1 26.9°
Sets 08:44:54 0° 82° (E) 4,602 12.3 27.8°
